Погода в Тагиркент-Казмаляре

Россия / Республика Дагестан     41°48′38″N   48°30′35″E
темп.,
°C
ветер,
м/с
пор.,
м/с
влажн.,
%
обл.,
%
осадки,
мм/ч
давл.,
гПа
погр.,
м
15 апреля, чт
чт1500:00+10ю227998 0.0 101615
03:00+9ююв3576100 0.0 101776
06:00+9ю36800 0.0 1017132
09:00+17юв67560 0.0 1017910
12:00+18вюв66515 0.0 10171142
15:00+17юв665330 0.0 1017981
18:00+13юв4769100 0.0 1018257
21:00+11ю3477100 0.0 101959
16 апреля, пт
пт1600:00+12юз1171100 0.0 101810
03:00+12юз2267100 0.0 101810
06:00+12зюз226399 0.0 101912
09:00+19ссв32445 0.0 1020543
12:00+19всв44430 0.0 1019821
15:00+19в44445 0.0 1018767
18:00+14юв367468 0.6 1019161
21:00+11ююв227421 0.6 102015
17 апреля, сб
сб1700:00+11ююв117511 0.0 101810
03:00+10з11760 0.0 101810
06:00+11зсз11716 0.0 101911
09:00+18ссв21505 0.0 1018402
12:00+19св315074 0.0 1017541
15:00+18с4354100 0.0 1017384
18:00+12сз3677100 0.0 1019159
21:00+12сз2265100 0.0 102038
18 апреля, вс
вс1800:00+12зсз2263100 0.0 102017
03:00+12сз3861100 0.0 1020174
06:00+12юз1177100 0.0 102133
09:00+15с3368100 0.0 1020533
12:00+16с4364100 0.0 1018561
15:00+16ссв33595 0.0 1016469
18:00+13ссз2263100 0.0 101743
21:00+12з2260100 0.0 101719
19 апреля, пн
пн1900:00+12зсз2264100 0.1 101720
03:00+11зсз2271100 0.1 101724
06:00+12зюз22715 0.0 101843
09:00+18св21475 0.0 1018468
12:00+20в434511 0.0 1016624
15:00+19в33485 0.0 1016472
18:00+15вюв3464100 0.0 101583
21:00+13ю2267100 0.0 101521